格洛纳斯M-757 COSMOS 2529 [GLONASS-M]

导读 | 豆包AI

COSMOS 2529(GLONASS-M)是独联体(CIS,实际为俄罗斯)发射的GLONASS全球卫星导航系统卫星,于2018年11月3日发射入轨。它属于GLONASS系统的第二代“飓风M”系列卫星,运行在高度约19100公里的中地球轨道(MEO),轨道倾角64.8°,主要为全球用户提供全天候、高精度的定位、导航与授时服务,是俄罗斯维护GLONASS星座组网、提升系统服务稳定性的重要组成部分。

基本信息
目录编号:
43687
目录名称:
COSMOS 2529 (GLONASS)
国际标识:
2018-086A
轨道中心:
EARTH
卫星名称:
格洛纳斯M-757
卫星全名:
格洛纳斯M-757 COSMOS 2529 [GLONASS-M]
卫星状态:
在轨 (已飞行2735 天)
发射日期:
2018-11-03 UTC
国别 :
俄罗斯(独联体) (CIS)
星等 :
--
轨道信息
数据来源 国际轨道数据
星历时间: 2026-04-28T18:33:13+0800
2天前
查看轨道信息
半长轴: 25508.025km
偏心率: 0.0010404
轨道倾角: 64.292°
近地点辐角 255.235°
升交点赤经 194.273°
平近点角 104.705°
近地点: 19103.349km
远地点: 19156.427km
周期: 675.733分钟
每日圈数: 2.13102
详细信息
平衡模式:
三轴稳定
覆盖范围:
全球
运营商:
列舍特涅夫卫星信息系统
运营商所在国:
俄罗斯
制造商(研发单位):
列舍特涅夫卫星信息系统
制造商所在国:
俄罗斯
使用方式:
暂无
卫星简介
格洛纳斯(GLONASS )是苏联/俄罗斯研制卫星导航系统。标准配置为24颗卫星,其中18颗卫星就能保证该系统为俄罗斯境内用户提供全部服务。该卫星仍在工作。
2D轨道图
3D轨道图
轨道高度分析图
轨道倾角分析图
轨道综合分析图
查看轨道综合分析图